Regional Weather Roundup
Issued by NWS

Home | Current Version | Previous Version | Graphics & Text | Print | Product List | Glossary On
Versions: 1 2 3 4 5 6 7 8 9 10 11 12 13 14 15 16 17 18 19 20 21 22 23 24 25 26 27 28 29 30 31 32 33 34 35 36 37 38 39 40 41 42 43 44 45 46 47 48 49 50
257
ASUS43 KBIS 271910
RWRND

NORTH DAKOTA REGIONAL WEATHER ROUNDUP
NATIONAL WEATHER SERVICE BISMARCK ND
200 PM CDT MON MAR 27 2017

NOTE: "FAIR" INDICATES FEW OR NO CLOUDS BELOW 12,000 FEET WITH NO
SIGNIFICANT WEATHER AND/OR OBSTRUCTIONS TO VISIBILITY.


NDZ001>003-009>011-017-272000-
NORTHWEST NORTH DAKOTA

CITY           SKY/WX    TMP DP  RH WIND       PRES   REMARKS
WILLISTON      PTSUNNY   54  26  34 E9        29.92S
MINOT          FAIR      46  39  76 N10       29.93F
MINOT AFB      PTSUNNY   39  37  93 N10       29.94S
$$

NDZ018>021-031>035-040>046-272000-
SOUTHWEST NORTH DAKOTA

CITY           SKY/WX    TMP DP  RH WIND       PRES   REMARKS
BISMARCK       FAIR      63  37  38 NW6       29.92F
DICKINSON      FAIR      58  29  33 VRB6      29.87F
GARRISON         N/A     54  40  59 SE6       29.91S
HETTINGER ARPT SUNNY     58  33  39 S10       29.89F
$$

NDZ004>008-012>016-024-026-027-054-272000-
NORTHEAST NORTH DAKOTA

CITY           SKY/WX    TMP DP  RH WIND       PRES   REMARKS
GRAND FORKS    CLOUDY    42  40  92 SE10      29.98F FOG
GRND FRKS AFB  CLOUDY    41  41 100 S8        29.99F
DEVILS LAKE    FAIR      50  41  71 SE7       29.95F
$$

NDZ022-023-025-028>030-036>039-047>053-272000-
SOUTHEAST NORTH DAKOTA

CITY           SKY/WX    TMP DP  RH WIND       PRES   REMARKS
FARGO          SUNNY     53  42  66 VRB5      29.97F
JAMESTOWN      FAIR      57  39  51 S7        29.95S
$$





USA.gov is the U.S. government's official web portal to all federal, state and local government web resources and services.